STARLINK-31757, 59427

Orbit data source: Space-Track

STARLINK-31757, 59427 is a payload satellite owned by SpaceX/Seattle (US) in LEO that was launched on Sun, 07 Apr 2024 UTC via an FALCON 9 launch vehicle from the Air Force Western Test Range (AFWTR). Payload-class satellites include a variety of spacecraft equipped with specific instruments for various scientific and technological missions. These include communications satellites like Starlink; space stations such as the ISS; scientific satellites like the Hubble; Earth observation satellites from companies like Planet Labs, Umbra, and HawkEye 360; GPS; miniature CubeSats for education and research; and military/defense satellites.

Loading next visibility...
Identifier
59427, 2024-065G
Orbit
LEO
Country
Flag of USUS
Related business
Manufacturer
SpaceX/Seattle
Mission
Operational Commercial Communications
Bus & Motor
STARLINK V2M, Unknown motor
Mass
730 kg wet, ~700 kg dry
Launch date (UTC)
2024-04-07 (2 years ago)
Launch vehicle
FALCON 9
Launch site
Air Force Western Test Range (AFWTR)
Object type
Payload
Rocket body
Debris
Shape & HBR
Box + 2 Pan, 17.7 m
Radar Cross Section
33.884 m², Large (>1 m²)

Expand to show TLE details & history
Last TLE update: 2 days ago

TLE from 2 days ago
0 STARLINK-31757
1 59427U 24065G   26171.26946808  .00000840  00000-0  35992-4 0  9998
2 59427  53.1614 164.5911 0001599  95.2764 264.8421 15.34397423124648
Epoch: 2026-06-20T06:28Z
TLE epoch observation values (Epoch: 2026-06-20T06:28:02.042Z)
Latitude
-0.00001°
Longitude
159.09607°
Altitude
463.711 km
Speed
7.636 km/s
True Right ascension
10h 58m 21s
True Declination
0° 00' 00"
Sunlit
Object was in daylight at epoch
Visualization orbit readout
Latitude
Unknown
Longitude
Unknown
Altitude
Unknown
Speed
Unknown
Apparent Right ascension
Unknown
Apparent Declination
Unknown
Sunlit
N/A
Visualization observer readout
Local Sidereal Time
21:30:39
Azimuth
Unknown
Elevation
Unknown
Doppler factor
Unknown
Orbital elements
Apogee altitude
464.061 km
Perigee altitude
461.874 km
Semi-major axis
6,841.105 km
Eccentricity
0.00016
Inclination
53.1614°
RAAN
164.5911°
Arg. of periapsis
95.2764°
True anomaly
264.82385°
Mean anomaly
264.8421°
Eccentric anomaly
264.83298°
Mean motion
3.83578 °/min
Orbital period
93.85 mins
BSTAR
0.000035992
Loading maneuver chart data...
Computing Atmospheric mass density...
Loading historical data...
Loading historical data...
Loading historical data...
Loading historical data...
Loading historical data...
Loading historical data...
Loading historical data...

Documentation

Showing up to 5 results
|